RH
95 100 98 91 89 90 94 96 97 97 96 96 96 96 96 96 97 95 96 97 98 98 98 100 100 100 99 99 100 99 99 100 100 100 100 100 100 100 100 100 100 100 100
100 95 88 87 85 78 67 82 94 96 96 96 96 96 95 96 95 93 92 95 93 94 96 96 98 100 100 98 100 98 100 100 100 100 100 100 97 99 99 99 100 100 100
97 91 88 95 87 71 55 45 52 86 94 95 94 94 95 94 75 53 89 92 89 77 62 65 86 92 97 99 98 97 100 100 100 100 100 100 100 99 100 99 98 100 98
94 96 100 100 100 92 38 31 39 72 83 90 86 84 88 93 90 88 80 86 83 80 77 81 80 47 48 73 95 95 98 98 98 98 98 98 99 98 99 98 98 100 100
100 100 100 100 94 73 34 31 35 46 63 65 60 66 90 89 98 94 82 82 80 84 92 92 100 98 89 34 33 68 93 96 96 96 96 97 97 98 97 84 38 34 47
98 97 94 91 88 74 46 33 35 41 45 54 62 85 81 94 78 72 72 71 64 73 85 92 82 73 60 51 48 40 43 52 81 90 90 91 92 94 94 96 96 66 24
89 82 80 86 82 70 40 31 34 42 42 42 53 63 80 100 84 52 54 54 64 67 74 71 85 71 66 60 57 59 53 70 73 85 83 80 78 61 56 45 42 61 45
76 76 72 68 52 43 30 28 32 36 41 49 54 62 66 90 100 53 50 50 54 58 66 84 66 74 64 64 61 59 59 60 72 78 82 86 73 56 50 47 47 45 46
47 46 40 31 27 26 20 24 32 34 36 40 46 50 63 81 92 52 55 53 57 60 59 71 72 66 68 58 58 64 69 68 68 70 71 70 61 57 52 49 44 42 44
23 19 16 14 15 16 23 27 36 35 37 39 45 51 60 64 85 70 60 61 61 63 62 55 60 68 57 45 46 50 54 64 67 68 67 66 64 62 58 54 52 55 56
61 42 31 24 14 20 28 31 30 27 29 34 44 55 64 69 69 70 72 67 72 71 68 64 58 56 50 46 46 46 54 58 60 64 66 68 66 65 64 64 64 63 64
68 46 39 35 22 17 23 25 25 22 25 37 50 58 68 72 75 76 80 79 79 79 76 73 64 57 52 47 46 54 56 57 60 64 69 70 71 71 70 70 70 70 72
67 42 37 29 27 19 14 15 15 19 30 49 63 67 72 76 77 77 76 79 81 82 85 82 72 63 57 54 55 59 58 61 66 68 72 76 78 78 77 75 75 73 74
41 37 35 30 28 19 13 13 14 21 45 64 67 70 74 77 79 78 80 80 85 83 82 80 77 75 72 74 72 72 74 76 78 78 80 84 83 81 80 78 75 73 73
31 27 27 24 20 16 14 13 15 28 55 63 66 72 78 83 96 98 88 83 85 85 80 77 76 76 76 77 79 81 82 83 83 86 86 84 84 85 87 87 85 83 84
23 20 18 16 14 13 12 12 13 22 43 55 56 60 70 81 87 87 87 85 85 85 80 80 82 84 85 84 86 88 90 89 89 89 90 91 88 88 87 88 89 88 85
20 19 16 13 11 10 10 10 11 15 22 33 46 49 56 65 76 83 85 87 86 84 85 87 88 90 91 91 91 91 90 92 92 93 93 93 91 90 89 88 89 90 86
18 16 13 11 11 11 11 11 11 10 11 15 24 35 44 49 55 70 79 81 82 86 92 94 94 94 94 93 94 94 93 94 95 97 96 97 95 94 93 94 95 94 91
16 14 13 12 11 11 11 11 11 11 11 11 12 17 28 36 39 45 56 70 83 91 93 94 95 94 93 95 95 94 93 94 97 97 98 98 99 98 96 99 97 96 98
16 15 14 14 13 13 12 12 12 12 13 12 12 13 14 21 29 31 34 40 53 73 95 97 96 95 94 95 94 92 89 94 95 96 97 98 98 99 96 95 96 95 96
15 15 15 16 16 16 16 15 14 13 13 14 14 14 13 13 14 16 20 23 29 40 63 96 97 96 96 96 95 92 92 96 98 97 98 98 98 98 98 98 97 98 100
15 15 16 16 18 18 18 17 16 15 14 14 14 13 13 12 12 12 13 15 18 24 37 70 98 98 98 96 94 92 94 95 97 96 97 98 98 98 98 98 98 99 100
15 15 16 18 19 20 19 17 16 16 15 15 14 14 13 13 12 12 12 12 13 16 23 45 89 95 97 97 95 97 95 95 97 98 96 97 97 97 98 98 98 98 98
15 15 16 18 20 21 20 19 18 17 16 15 15 14 14 14 13 13 12 12 12 13 16 27 64 97 96 96 95 96 96 96 97 96 97 97 96 96 95 97 98 97 99
14 14 16 18 21 21 22 21 22 21 19 17 16 15 14 14 13 13 12 12 12 12 13 16 37 86 96 95 96 96 96 96 96 97 96 96 96 96 97 97 96 95 96
14 15 16 19 21 22 22 22 22 22 21 19 17 16 15 14 14 13 13 12 12 12 13 13 20 57 94 94 96 96 96 96 96 96 96 95 93 95 96 96 96 95 95
Wind_Speed
33 31 29 29 30 29 29 28 26 24 24 23 24 26 25 26 24 23 29 28 24 23 24 23 23 24 23 14 7 3 3 9 17 19 21 24 29 26 34 38 41 43 41
29 29 28 28 29 29 30 29 26 25 24 24 26 30 33 33 34 31 30 30 30 29 27 26 25 23 24 28 25 19 15 17 25 29 24 22 23 22 22 34 36 34 31
28 26 26 27 30 30 30 29 27 26 26 25 26 28 30 33 32 29 25 27 28 29 29 29 30 26 25 24 24 28 28 26 25 27 26 22 18 16 15 18 16 25 25
24 24 25 25 27 29 29 28 26 23 23 24 25 26 27 28 28 26 27 28 28 29 28 28 29 30 29 26 23 23 19 20 18 18 18 18 16 15 13 10 9 11 8
22 22 23 24 24 26 27 27 24 23 22 22 25 28 30 29 28 27 28 27 29 28 28 27 27 25 27 29 27 25 22 20 19 18 18 16 15 12 13 12 9 7 6
19 20 21 23 23 25 24 24 24 23 24 24 26 30 32 30 26 24 24 28 29 29 28 28 27 27 28 27 25 23 24 22 20 19 18 20 18 16 13 9 5 5 3
19 20 21 21 23 23 22 22 24 24 23 24 26 28 30 32 29 25 25 27 27 27 29 29 29 28 26 25 25 24 24 22 21 19 19 18 17 16 13 12 11 6 2
19 20 21 22 21 20 20 21 22 23 25 26 25 27 29 32 31 29 27 27 27 26 27 29 28 28 26 23 23 23 22 21 20 18 17 16 16 14 14 13 12 10 8
21 23 22 21 20 20 20 20 20 22 24 26 28 29 30 31 33 31 30 29 28 27 26 26 26 26 25 23 22 22 20 19 17 15 14 13 13 12 12 10 9 9 8
23 21 20 21 21 20 19 19 19 21 23 26 28 30 32 32 32 33 32 31 29 28 26 24 24 24 23 23 23 22 21 19 16 12 12 10 11 11 11 12 12 12 12
20 18 18 19 21 20 18 19 19 22 24 26 28 31 33 34 34 32 32 32 30 28 27 26 24 23 22 21 21 22 21 18 16 14 13 12 12 12 12 11 11 11 11
19 18 18 19 21 21 20 21 22 24 27 29 30 31 33 34 34 32 30 29 29 27 27 25 23 21 21 20 20 20 18 17 17 17 16 16 16 15 14 13 11 10 10
18 17 19 19 20 24 24 25 26 27 29 31 32 33 35 35 35 33 31 28 28 26 24 22 19 17 17 18 19 19 20 21 21 20 20 19 18 17 15 12 11 10 7
15 16 17 19 21 23 24 25 27 29 31 31 32 34 34 36 38 37 35 32 29 26 23 20 19 19 18 19 20 21 22 23 23 22 21 20 18 16 16 15 15 14 10
14 15 16 18 20 20 22 24 26 27 27 28 29 30 34 35 34 32 33 33 31 28 24 24 24 25 24 24 23 23 22 22 22 21 21 20 19 19 18 17 17 17 16
13 15 17 18 19 20 20 20 21 22 22 23 26 29 29 29 29 29 30 30 29 29 30 32 32 31 30 29 29 27 25 23 22 21 21 21 21 21 20 19 19 19 19
14 15 16 18 19 19 19 19 19 19 22 24 26 27 28 29 32 32 32 32 32 32 34 33 32 31 30 29 29 27 25 23 21 21 20 20 20 19 19 19 19 20 19
14 16 17 18 18 18 20 20 21 22 23 24 25 27 28 31 33 34 35 34 37 38 38 36 35 34 32 31 30 29 26 25 24 22 20 20 20 21 20 20 21 22 22
14 16 16 17 18 19 20 21 22 23 25 26 26 27 29 31 33 35 38 41 41 40 39 37 35 34 33 32 32 30 28 27 26 24 23 22 22 22 22 22 22 22 22
13 14 14 16 17 19 21 22 23 24 26 28 30 32 31 32 35 38 39 39 39 40 39 38 37 35 35 34 33 31 30 29 28 26 24 23 22 22 22 22 22 22 22
12 12 14 15 18 19 20 23 24 25 27 28 29 30 31 34 35 36 37 39 40 40 39 38 38 37 36 35 34 33 32 30 29 28 26 25 24 23 23 22 22 22 22
10 11 13 15 17 18 21 22 24 25 27 28 28 29 30 31 32 34 35 37 38 38 39 38 38 38 37 36 35 34 33 31 30 28 27 25 24 23 23 22 22 22 23
10 11 13 15 17 18 19 21 23 24 26 27 29 30 32 32 33 34 35 36 37 37 38 38 39 39 37 35 35 35 34 32 30 29 27 26 24 24 23 23 22 23 24
10 12 13 15 15 17 19 20 22 23 25 27 29 30 32 32 33 34 34 35 36 37 38 38 39 40 38 36 36 34 32 29 28 27 25 25 25 25 25 24 23 23 22
10 12 13 13 14 16 18 19 21 22 24 26 28 29 30 32 33 33 35 36 37 37 38 39 39 39 38 37 36 35 32 28 27 25 23 24 24 26 26 25 23 24 24
10 11 12 13 14 15 17 19 21 22 22 23 25 27 29 31 32 33 35 36 38 38 39 39 39 39 38 38 36 35 33 30 27 24 24 24 25 26 26 27 26 26 25
Wind_Direction
356 358 356 3 5 8 12 13 12 12 16 22 22 23 21 18 24 21 30 33 38 38 40 40 51 53 52 47 56 106 216 215 208 144 170 172 168 165 159 161 177 183 187
3 357 6 11 14 14 16 17 14 19 24 33 31 31 23 25 30 29 29 33 36 38 37 38 44 55 62 61 61 70 88 118 122 118 121 132 136 125 135 138 146 151 158
359 4 13 18 19 19 18 19 19 24 26 24 26 27 31 27 30 33 34 38 40 41 40 38 39 47 52 60 62 69 74 88 95 100 94 109 118 112 99 102 117 132 143
3 12 18 17 14 12 15 18 20 23 26 24 23 30 36 35 33 34 40 43 46 45 45 43 43 44 47 48 50 56 59 70 70 70 69 72 86 84 89 85 79 101 135
12 15 15 12 14 13 18 19 24 27 31 36 38 41 36 34 28 29 35 39 44 46 47 46 43 46 48 53 48 42 45 52 54 55 57 61 60 66 66 66 49 50 74
13 11 10 10 8 12 14 19 24 29 32 38 42 43 39 30 25 30 33 39 39 41 40 45 46 50 52 53 55 59 54 53 53 49 50 48 44 41 33 31 50 60 41
14 15 13 11 9 12 16 20 24 29 32 32 38 40 43 31 25 31 35 38 36 37 38 36 40 46 50 53 56 56 59 60 58 55 56 53 51 49 48 51 53 47 34
13 12 14 14 14 17 18 21 23 27 32 37 38 38 37 35 25 34 33 36 34 33 35 32 37 38 45 49 55 55 54 54 53 50 48 46 44 39 35 36 32 32 41
24 23 20 18 17 16 18 20 26 29 33 35 34 34 33 33 25 28 28 29 30 30 28 33 30 35 36 44 50 57 56 53 52 48 45 40 34 30 26 27 22 26 38
27 23 20 21 21 19 21 25 31 35 35 35 34 33 31 29 26 21 21 23 24 23 26 28 30 29 32 37 40 44 43 42 45 48 46 39 32 27 20 18 15 10 14
15 15 20 22 23 24 27 32 36 39 37 35 34 33 31 27 23 22 20 22 21 19 20 21 23 24 25 28 31 32 30 29 30 30 32 30 25 19 18 11 6 1 353
9 14 19 21 28 32 32 36 38 38 36 34 32 32 30 27 25 23 23 21 20 18 20 20 19 18 17 17 20 20 18 20 21 21 20 18 15 13 15 9 1 1 343
2 12 17 22 28 30 33 35 36 35 33 31 30 27 25 23 23 24 24 22 20 19 20 21 22 20 17 14 12 10 8 11 11 13 14 14 10 7 5 7 2 7 358
3 12 16 22 24 25 28 31 31 32 30 28 26 25 23 21 19 18 17 19 23 23 24 26 27 27 25 21 17 15 13 11 11 10 10 9 8 9 8 6 4 4 15
10 17 22 25 28 26 27 29 31 31 27 26 26 24 22 21 16 14 16 17 21 20 24 29 31 29 27 25 24 20 17 15 13 11 9 9 9 8 11 5 3 1 360
18 27 29 30 32 32 32 31 32 32 31 32 31 28 28 27 25 24 22 23 24 23 27 29 27 25 23 21 19 19 17 15 13 10 9 7 6 4 4 4 359 355 349
28 31 32 35 35 34 34 36 41 39 34 34 32 29 27 29 29 30 28 28 30 30 32 30 28 26 23 23 20 17 14 14 13 12 7 4 2 2 358 357 353 348 344
33 36 36 36 36 36 36 35 35 35 35 37 36 32 29 30 30 29 29 28 31 31 28 25 23 21 19 18 17 14 13 13 15 11 9 6 2 358 356 355 353 348 344
38 39 36 38 40 38 37 36 35 33 32 32 34 35 31 31 30 29 29 29 27 26 24 23 21 18 16 15 14 13 12 14 12 11 10 6 2 357 357 354 350 349 345
40 41 40 41 41 40 38 37 36 34 33 30 29 28 26 27 28 29 28 27 26 25 22 20 18 16 14 13 12 11 12 13 12 12 10 6 4 1 357 356 354 350 349
39 41 43 43 43 40 39 38 37 35 34 32 30 28 25 26 27 27 26 25 24 23 21 19 17 16 14 12 11 11 13 12 10 9 9 8 6 4 1 0 359 359 356
41 44 46 45 44 40 39 37 36 35 34 33 31 30 28 28 27 27 26 25 24 22 20 19 18 17 15 13 11 13 12 11 10 9 11 12 11 11 10 11 9 5 360
48 49 48 47 44 41 40 38 36 35 34 32 31 30 29 28 27 27 25 25 24 22 21 20 19 19 17 16 16 15 11 10 10 10 14 18 20 19 18 16 14 12 8
55 53 50 48 45 43 41 38 36 34 32 31 31 30 29 28 27 27 25 25 25 23 22 21 22 20 18 19 21 19 15 13 15 17 21 25 27 25 21 15 9 8 2
59 55 52 49 48 45 41 36 32 30 28 27 28 29 29 28 28 27 26 26 25 24 24 23 23 22 20 23 24 23 21 21 22 24 28 30 29 25 23 20 21 29 26
60 57 53 50 47 43 37 32 28 25 24 25 26 26 26 26 26 26 26 25 25 25 25 24 24 24 22 25 26 26 26 27 28 29 31 31 30 26 27 26 32 35 38